EHI
0 0 0 0 0 0 0 0 0 0 0 0 0 0 0 0 0 0 0 0 0 0 0 0 0 0 0 0 0 0 0 0 0 1 1 1 0 0 0 0 0 0 0 0
0 0 0 0 0 0 0 0 0 0 0 0 0 0 0 0 0 0 0 0 0 0 0 0 0 0 0 0 0 0 0 0 0 1 2 1 0 0 0 0 0 0 0 0
0 0 0 0 0 0 0 0 0 0 0 0 0 0 0 0 0 0 0 0 0 0 0 0 0 0 0 0 0 0 0 0 0 1 2 1 0 0 0 0 0 0 0 0
0 0 0 0 0 0 0 0 0 0 0 0 0 0 0 0 0 0 0 0 0 0 0 0 0 0 0 0 0 0 0 0 0 1 1 1 0 0 0 0 0 0 0 0
0 0 0 0 0 0 0 0 0 0 0 0 0 0 0 0 0 0 0 0 0 0 0 0 0 0 0 0 0 0 0 0 0 0 0 0 0 0 0 0 0 0 0 0
0 0 0 0 0 0 0 0 0 0 0 0 0 0 0 0 0 0 0 0 0 0 0 0 0 0 0 0 0 0 0 0 0 0 0 0 0 0 0 0 0 0 0 0
0 0 0 0 0 0 0 0 0 0 0 0 0 0 0 0 0 0 0 0 0 0 0 0 0 0 0 0 0 0 0 0 0 0 0 0 0 0 0 0 0 0 0 0
0 0 0 0 0 0 0 0 0 0 0 0 0 0 0 0 0 0 0 0 0 0 0 0 0 0 0 0 0 0 0 0 0 0 0 0 0 0 0 0 0 0 0 0
0 0 0 0 0 0 0 0 0 0 0 0 0 0 0 0 0 0 0 0 0 0 0 0 0 0 0 0 0 0 0 0 0 0 0 0 0 0 0 0 0 0 0 0
0 0 0 0 0 0 0 0 0 0 0 0 0 0 0 0 0 0 0 0 0 0 0 0 0 0 0 0 0 0 0 0 0 0 0 0 0 0 0 0 0 0 0 0
0 0 0 0 0 0 0 0 0 0 0 0 0 0 0 0 0 0 0 0 0 0 0 0 0 0 0 0 0 0 0 0 0 0 0 0 0 0 0 0 0 0 0 0
0 0 0 0 0 0 0 0 0 0 0 0 0 0 0 0 0 0 0 0 0 0 0 0 0 0 0 0 0 0 0 0 0 0 0 0 0 0 0 0 0 0 0 0
0 0 0 0 0 0 0 0 0 0 0 0 0 0 0 0 0 0 0 0 0 0 0 0 0 0 0 0 0 0 0 0 0 0 0 0 0 0 0 0 0 0 0 0
0 0 0 0 0 0 0 0 0 0 0 0 0 0 0 0 0 0 0 0 0 0 0 0 0 0 0 0 0 0 0 0 0 0 0 0 0 0 0 0 0 0 0 0
0 0 0 0 0 0 0 0 0 0 0 0 0 0 0 0 0 0 0 0 0 0 0 0 0 0 0 0 0 0 0 0 0 0 0 0 0 0 0 0 0 0 0 0
0 0 0 0 0 0 0 0 0 0 0 0 0 0 0 0 0 0 0 0 0 0 0 0 0 0 0 0 0 0 0 0 0 0 0 0 0 0 0 0 0 0 0 0
0 0 0 0 0 0 0 0 0 0 0 0 0 0 0 0 0 0 0 0 0 0 0 0 0 0 0 0 0 0 0 0 0 0 0 0 0 0 0 0 0 0 0 0
0 0 0 0 0 0 0 0 0 0 0 0 0 0 0 0 0 0 0 0 0 0 0 0 0 0 0 0 0 0 0 0 0 0 0 0 0 0 0 0 0 0 0 0
0 0 0 0 0 0 0 0 0 0 0 0 0 0 0 0 0 0 0 0 0 0 0 0 0 0 0 0 0 0 0 0 0 0 0 0 0 0 0 0 0 0 0 0
0 0 0 0 0 0 0 0 0 0 0 0 0 0 0 0 0 0 0 0 0 0 0 0 0 0 0 0 0 0 0 0 0 0 0 0 0 0 0 0 0 0 0 0
0 0 0 0 0 0 0 0 0 0 0 0 0 0 0 0 0 0 0 0 0 0 0 0 0 0 0 0 0 0 0 0 0 0 0 0 0 0 0 0 0 0 0 0
0 0 0 0 0 0 0 0 0 0 0 0 0 0 0 0 0 0 0 0 0 0 0 0 0 0 0 0 0 0 0 0 0 0 0 0 0 0 0 0 0 0 0 0
0 0 0 0 0 0 0 0 0 0 0 0 0 0 0 0 0 0 0 0 0 0 0 0 0 0 0 0 0 0 0 0 0 0 0 0 0 0 0 0 0 0 0 0
0 0 0 0 0 0 0 0 0 0 0 0 0 0 0 0 0 0 0 0 0 0 0 0 0 0 0 0 0 0 0 0 0 0 0 0 0 0 0 0 0 0 0 0
0 0 0 0 0 0 0 0 0 0 0 0 0 0 0 0 0 0 0 0 0 0 0 0 0 0 0 0 0 0 0 0 0 0 0 0 0 0 0 0 0 0 0 0
0 0 0 0 0 0 0 0 0 0 0 0 0 0 0 0 0 0 0 0 0 0 0 0 0 0 0 0 0 0 0 0 0 0 0 0 0 0 0 0 0 0 0 0
Wind_Speed
4 5 2 2 2 2 1 2 4 4 2 2 5 8 6 3 2 3 4 4 3 4 4 4 3 3 3 2 2 1 1 1 0 0 1 1 1 1 1 1 1 1 1 2
5 2 3 2 1 1 1 2 4 4 3 2 5 8 6 2 2 2 3 3 4 4 5 6 5 4 4 3 2 1 1 0 0 1 1 1 1 1 1 1 1 1 1 2
3 2 2 2 2 2 2 3 3 4 5 2 4 7 3 2 1 2 2 2 2 3 4 5 5 4 4 3 3 2 1 1 1 1 1 1 1 1 1 1 1 1 1 1
0 3 2 1 1 0 4 2 3 2 2 4 1 6 5 3 3 3 4 3 4 4 3 4 4 5 4 3 3 2 1 1 0 2 2 2 2 2 2 1 1 1 1 1
2 2 2 1 2 0 3 3 1 1 1 2 1 3 8 2 4 5 4 4 4 4 3 4 4 4 4 4 3 2 2 2 1 0 2 3 2 1 1 1 1 2 1 1
2 1 0 1 2 0 1 2 3 3 2 3 4 4 8 3 4 4 3 3 4 4 4 4 4 4 5 5 4 3 3 2 2 1 0 2 3 2 1 1 1 1 1 1
4 2 1 1 2 3 3 4 4 5 3 6 2 4 9 5 3 3 3 3 4 3 3 4 5 5 5 6 4 3 3 3 2 1 1 1 3 3 3 3 3 2 1 1
2 5 2 1 2 2 1 4 4 4 5 5 2 7 8 3 3 2 2 2 3 4 3 4 4 4 4 5 4 3 3 3 3 1 1 1 1 2 2 3 3 3 2 2
3 5 2 1 0 3 2 2 2 3 1 4 6 7 8 3 3 3 3 3 4 4 4 4 4 4 4 5 4 2 2 3 3 2 1 1 1 1 2 2 2 2 2 2
4 4 3 2 1 1 2 4 3 3 2 5 6 5 6 6 5 3 3 4 4 4 4 4 4 4 4 4 4 3 2 2 2 2 1 1 1 1 1 2 2 2 2 2
3 3 4 2 3 4 2 2 3 3 3 4 5 8 5 5 4 4 4 3 4 5 4 4 4 3 3 4 4 3 3 3 3 3 2 1 2 2 2 2 2 2 2 3
3 3 4 6 2 1 3 4 5 4 5 4 4 10 3 3 2 3 3 4 4 4 4 3 3 4 3 3 4 4 4 3 3 3 3 2 2 2 2 2 2 2 2 2
4 3 2 5 2 1 2 3 4 3 2 4 5 10 2 2 3 3 3 5 5 5 4 3 3 3 4 4 4 3 3 3 4 3 3 3 2 2 2 2 2 2 2 2
3 4 6 8 6 4 4 4 4 5 4 6 11 13 8 5 5 5 5 5 5 4 4 3 3 3 3 4 4 3 3 3 3 3 3 3 3 3 2 2 2 2 2 2
3 4 5 7 6 3 6 7 7 9 10 11 11 11 13 7 6 6 5 5 4 4 4 4 4 4 4 4 4 3 4 3 3 3 3 4 4 3 3 2 2 1 1 2
1 3 2 5 5 5 8 9 9 11 10 13 13 16 9 6 3 4 5 5 5 5 5 4 4 4 4 4 5 5 4 4 3 3 3 4 3 3 3 2 2 2 2 2
2 3 2 5 4 4 10 11 11 9 8 8 13 14 6 5 5 5 6 5 6 6 5 5 4 4 4 5 4 5 5 4 3 3 3 4 3 3 3 3 2 2 2 1
5 3 2 2 1 9 9 3 6 8 9 9 8 7 6 6 6 5 5 5 5 5 5 4 4 4 4 4 4 4 4 4 3 3 4 4 3 4 3 3 2 2 2 2
5 5 3 2 5 11 8 3 4 5 8 7 10 9 7 4 3 4 4 4 5 5 5 4 3 4 4 4 4 4 4 4 3 4 4 4 4 4 4 3 3 3 2 2
1 3 3 3 5 9 7 2 1 2 7 4 5 7 4 0 3 5 3 3 4 4 3 3 3 3 3 4 3 3 4 4 5 5 5 4 4 4 4 4 3 2 2 2
2 2 5 6 8 11 5 1 4 3 7 3 3 5 4 5 6 5 4 3 3 3 3 3 3 3 3 3 3 3 4 5 6 5 5 4 4 4 4 3 2 2 2 2
8 6 6 5 6 11 2 5 7 7 2 2 3 3 4 5 5 4 4 3 3 3 4 3 3 4 3 2 2 4 5 5 5 5 5 4 4 3 2 2 2 2 2 2
8 8 6 9 9 4 4 6 4 1 3 3 3 3 3 3 4 4 4 4 3 3 4 3 3 4 4 3 2 4 5 4 4 4 4 4 4 3 2 2 2 2 1 2
4 2 3 5 8 5 5 4 3 3 4 4 3 4 3 4 5 5 4 4 4 4 4 3 3 4 5 4 4 4 5 4 3 4 4 3 3 3 2 2 2 2 2 2
5 4 4 6 6 5 5 5 5 4 4 4 4 4 4 4 5 5 4 4 4 4 3 3 3 4 5 5 5 5 4 3 3 3 3 3 3 2 2 2 2 2 3 3
4 6 6 7 5 4 6 3 3 4 5 4 4 5 4 4 5 4 4 4 3 4 3 3 4 4 5 4 5 4 3 2 2 3 3 3 2 2 2 2 3 4 4 5
Wind_Direction
25 57 31 270 239 255 236 250 272 274 300 292 262 273 285 294 321 316 309 310 316 315 330 348 359 359 358 4 352 326 4 7 62 127 126 161 174 164 117 80 80 98 109 126
43 12 284 299 343 354 318 292 292 306 326 274 278 275 273 268 261 275 281 292 310 332 346 349 358 6 5 358 354 348 324 278 223 199 185 197 188 175 170 124 97 92 108 133
137 267 316 35 23 353 288 254 277 292 329 332 314 292 272 283 263 312 305 302 322 324 329 337 346 353 358 355 348 338 325 284 239 170 105 85 77 78 65 86 107 93 109 124
12 308 349 15 343 32 274 288 280 285 329 304 359 295 285 283 303 314 309 319 315 320 324 335 343 350 347 336 340 348 343 353 252 158 135 135 141 175 198 194 178 144 131 126
297 333 352 311 300 223 249 320 313 270 201 303 304 255 286 320 296 295 295 299 315 326 334 338 343 344 347 344 347 357 4 4 21 101 164 162 160 184 172 138 139 151 148 145
275 291 272 260 322 344 326 24 34 42 77 275 233 202 278 250 250 288 303 311 318 327 340 346 350 355 356 358 5 10 16 2 8 36 124 176 172 172 142 140 154 172 170 173
327 318 344 29 29 17 48 66 12 351 347 258 227 209 253 254 246 235 266 295 323 333 343 350 354 357 354 355 358 3 10 357 356 18 29 226 197 189 190 193 186 185 190 220
314 293 284 356 163 190 197 138 161 224 252 286 293 239 254 260 265 265 268 286 330 338 339 343 345 345 346 346 347 354 355 351 350 352 327 336 245 206 204 208 195 195 202 212
195 264 319 330 310 146 145 188 173 144 272 280 271 284 296 298 303 306 315 326 319 319 324 328 337 342 341 340 335 325 336 342 346 335 330 330 335 263 222 214 206 196 200 208
167 257 285 304 16 7 151 152 115 142 219 269 284 272 263 280 277 295 308 306 307 316 320 322 329 334 336 334 333 335 337 330 329 330 317 323 307 309 273 229 219 207 206 201
150 197 295 328 205 207 146 148 154 160 184 203 270 267 234 235 240 246 263 285 295 302 305 313 323 328 332 344 349 348 343 343 339 334 321 322 324 322 312 265 245 228 220 209
172 154 256 252 245 195 182 190 167 182 234 211 235 267 265 229 241 246 272 295 300 300 304 312 319 329 338 347 351 350 345 339 331 328 325 319 324 322 310 303 276 243 227 220
153 145 311 326 327 347 241 217 199 184 172 198 221 264 299 327 308 289 286 297 305 313 319 327 330 333 332 335 338 340 339 335 335 339 336 330 328 319 309 299 301 276 238 230
146 174 201 229 240 199 230 229 198 176 205 232 233 257 280 296 295 292 287 284 291 301 306 318 324 325 326 329 331 329 327 328 328 334 328 316 306 300 293 285 281 281 252 230
137 218 237 257 265 239 236 235 210 209 218 229 250 251 264 270 267 270 272 280 291 296 302 308 312 314 322 328 330 330 324 325 324 322 311 299 299 301 301 294 282 273 265 235
152 219 238 269 265 256 262 250 231 231 236 243 262 269 266 275 275 277 275 272 276 280 287 298 305 310 314 319 321 322 317 319 320 309 300 303 305 306 305 289 285 284 277 261
181 178 210 265 288 307 264 237 221 226 224 217 240 256 279 283 270 261 260 257 264 273 282 288 293 296 304 308 309 308 308 313 312 301 302 307 306 302 299 291 293 287 276 274
174 181 208 266 353 251 249 206 208 229 243 228 245 270 274 270 274 261 243 242 262 270 274 281 287 296 303 306 309 310 315 314 306 304 304 303 302 297 297 287 285 284 282 258
194 183 195 208 250 272 281 239 186 214 263 230 241 263 279 306 311 279 253 241 247 258 267 270 276 284 297 304 308 314 319 320 308 298 296 299 296 293 291 277 276 279 276 271
126 178 191 200 231 252 257 240 175 117 277 253 225 253 265 351 289 278 296 286 277 284 287 286 294 297 296 300 309 311 310 312 305 300 297 295 287 281 279 268 270 275 268 270
155 189 210 220 239 261 256 191 126 180 257 288 228 238 219 216 239 274 299 299 289 295 297 298 298 291 287 296 305 299 300 294 296 301 300 297 291 281 279 278 269 259 263 267
184 186 202 190 225 254 197 147 192 227 278 282 258 241 229 245 267 279 282 283 294 302 304 302 296 293 298 296 288 289 287 293 303 304 302 301 299 291 288 282 281 267 247 242
204 198 195 200 221 244 181 203 232 277 269 272 262 263 241 257 268 279 279 279 282 284 288 293 290 296 303 296 279 279 288 301 307 307 304 303 300 297 291 270 273 276 265 254
239 214 209 248 259 259 246 249 271 261 255 272 268 267 252 256 268 276 279 282 282 281 279 285 290 293 297 300 291 278 289 297 296 297 299 300 300 301 303 287 268 255 253 251
221 181 213 250 274 301 268 244 255 267 273 286 289 273 259 258 269 269 275 278 278 284 288 281 276 280 288 298 296 295 297 295 293 295 298 299 294 290 299 293 266 256 248 249
197 185 196 236 235 234 266 274 262 259 269 274 281 291 287 265 269 275 279 281 283 288 293 295 291 289 293 300 300 304 305 292 285 293 300 297 299 295 293 296 303 289 277 278